This is the latest recevied weather packets stored in our database for station/object ED4YAZ-13. If no packets are shown the sender has not sent any weather packets the latest 10 day(s).
| Time | Temp. | Humidity | Pressure | Rain* | Wind** | Luminosity | Snow |
|---|---|---|---|---|---|---|---|
| 1777926073 | 11.67° C | 52% | 1015.5 hPa | - | - | - | - |
| 1777925473 | 11.67° C | 51% | 1015.3 hPa | - | - | - | - |
| 1777924873 | 11.67° C | 50% | 1015.1 hPa | - | - | - | - |
| 1777924273 | 11.67° C | 49% | 1014.8 hPa | - | - | - | - |
| 1777923186 | 12.22° C | 47% | 1014.3 hPa | - | - | - | - |
| 1777922585 | 12.78° C | 46% | 1014.1 hPa | - | - | - | - |
| 1777922048 | 13.33° C | 44% | 1013.8 hPa | - | - | - | - |
| 1777921981 | 13.33° C | 44% | 1013.8 hPa | - | - | - | - |
| 1777921381 | 15° C | 41% | 1013 hPa | - | - | - | - |
| 1777920772 | 15.56° C | 39% | 1012.6 hPa | - | - | - | - |
| 1777920172 | 15.56° C | 38% | 1012.5 hPa | - | - | - | - |
| 1777919568 | 17.78° C | 36% | 1011.7 hPa | - | - | - | - |
| 1777918968 | 20.56° C | 31% | 1010.3 hPa | - | - | - | - |
| 1777918368 | 21.67° C | 29% | 1009.7 hPa | - | - | - | - |
| 1777917768 | 23.33° C | 29% | 1009.1 hPa | - | - | - | - |
| 1777917163 | 22.78° C | 28% | 1009.2 hPa | - | - | - | - |
| 1777916554 | 24.44° C | 28% | 1008.6 hPa | - | - | - | - |
| 1777916549 | 24.44° C | 28% | 1008.6 hPa | - | - | - | - |
| 1777915939 | 23.89° C | 27% | 1008.5 hPa | - | - | - | - |
| 1777915939 | 23.89° C | 27% | 1008.5 hPa | - | - | - | - |
| 1777915339 | 22.22° C | 30% | 1009.2 hPa | - | - | - | - |
| 1777914739 | 25.56° C | 27% | 1008 hPa | - | - | - | - |
| 1777913547 | 25.56° C | 27% | 1008.1 hPa | - | - | - | - |
| 1777912927 | 26.67° C | 26% | 1007.9 hPa | - | - | - | - |
| 1777912327 | 27.22° C | 26% | 1007.3 hPa | - | - | - | - |
* Rain since midnight (hover to see other rain measurements)
** Current wind speed in m/s (hover to see current wind gust speed)